Terug naar catalogus

NIMBUS 2 DEB

ActiefLEO
NORAD 28202·DEBRIS·🇺🇸 United States

Gelanceerd May 15, 1966 vanaf Vandenberg Space Force Base

Loading…

Volgende Passages (komende 24 uur)

TLE

VersSource: Space-Track

Epoch: Sep 14, 2026, 11:04 UTC

1 28202U 66040Q   26257.46176062  .00001612  00000-0  20289-2 0  9997
2 28202 100.2049 152.7860 0036280  18.0137 159.4292 13.65442251644997

Volg NIMBUS 2 DEB in realtime met AllMySat

Download on the App Store